Wind_Speed
14 11 9 2 3 5 7 6 12 14 17 12 9 9 15 14 11 6 19 17 17 17 12 10 8 10 10 10 10 10 11 11 11 12 11 11 11 12 12 13 13 14 13 12 12 12 11 10 9
13 9 5 4 3 8 8 16 16 12 13 14 12 10 8 15 13 18 17 18 17 16 14 11 9 10 10 10 9 11 11 11 12 11 10 11 11 11 11 12 13 13 12 10 10 10 9 8 8
8 4 3 3 3 8 12 15 17 16 15 12 7 12 9 10 17 11 22 18 16 16 14 11 10 10 9 10 11 12 12 11 11 10 9 10 10 10 10 10 10 10 9 8 8 8 9 7 6
7 5 5 2 6 18 14 13 18 19 11 4 13 14 11 17 11 21 21 17 15 15 15 11 10 9 10 12 9 10 10 11 9 9 9 9 9 8 7 7 7 8 7 7 9 9 8 6 5
11 5 3 3 18 17 16 18 17 14 9 9 5 14 14 8 21 22 20 17 15 13 13 11 10 10 12 11 10 11 9 8 8 7 7 7 7 6 5 5 6 6 7 8 8 7 5 5 5
3 3 2 8 17 18 16 15 15 11 4 7 17 18 9 15 20 20 18 16 16 17 14 12 10 10 8 8 9 9 8 7 7 6 6 6 5 4 5 5 5 6 7 8 4 4 4 4 4
7 4 6 13 15 15 14 13 15 14 9 9 14 15 13 19 18 19 17 14 15 14 14 12 10 10 10 9 8 8 7 6 6 5 5 4 3 3 4 5 6 7 7 8 2 7 5 6 7
7 2 1 9 12 13 16 7 14 11 8 11 8 7 18 22 20 19 16 15 14 14 14 13 11 11 10 9 9 8 6 5 4 3 3 4 5 6 8 5 6 7 7 7 8 9 9 9 12
4 3 1 10 3 13 14 15 11 7 7 5 5 10 22 25 22 20 18 16 14 13 11 13 11 11 11 10 7 7 6 7 7 7 4 4 5 6 6 5 8 9 9 10 10 12 12 15 14
3 6 1 8 12 14 13 8 12 10 5 9 13 18 26 24 22 20 18 17 15 15 14 14 13 12 12 12 6 7 6 6 5 6 3 8 8 5 10 7 9 8 11 13 11 14 15 17 15
9 9 7 6 3 7 15 11 14 15 8 13 17 22 22 24 20 19 17 18 16 15 14 14 13 12 11 10 11 10 7 10 8 6 6 5 6 6 10 6 6 6 10 11 10 7 9 8 8
7 10 8 8 2 10 18 16 13 11 1 13 18 21 21 20 17 18 17 16 17 16 14 14 14 9 11 10 9 11 10 11 8 8 4 5 8 8 4 5 7 2 11 2 11 13 9 9 7
9 6 5 15 10 18 18 15 13 15 13 19 19 21 20 19 18 19 18 17 17 16 15 14 14 7 8 5 7 9 9 12 9 9 3 13 6 8 9 5 10 6 4 8 7 9 5 7 10
2 3 20 14 6 10 12 14 13 12 13 17 19 20 19 19 19 20 18 18 18 17 16 15 14 12 10 9 9 7 10 9 9 10 7 4 5 6 3 3 8 4 5 10 9 7 4 11 6
9 9 18 15 15 10 14 15 8 13 13 16 19 18 18 18 21 19 19 18 18 18 17 16 16 14 10 10 11 7 10 11 9 7 7 5 6 3 2 9 10 9 6 5 5 3 4 4 8
13 8 5 14 16 10 19 12 13 13 14 15 17 16 16 18 20 20 19 19 18 19 19 17 16 14 11 10 9 9 8 9 9 11 10 6 5 2 5 9 10 6 6 6 5 4 4 5 8
14 8 1 16 18 13 16 9 21 14 12 13 15 16 16 17 19 20 20 20 21 20 20 18 15 16 12 11 10 10 7 8 8 8 10 5 7 4 6 10 6 7 7 7 6 5 6 5 7
13 14 17 16 15 10 25 21 17 16 16 15 15 16 17 17 18 22 22 22 22 22 21 18 16 15 13 12 11 13 9 9 9 6 11 4 6 1 7 8 4 5 7 7 7 7 5 5 3
8 13 14 22 11 23 7 11 17 15 15 16 15 16 17 18 19 23 23 23 24 23 24 21 18 16 16 15 14 12 13 11 9 8 7 5 4 4 5 8 5 10 7 6 3 5 4 6 2
10 17 10 5 18 8 10 7 18 16 14 17 17 17 18 19 20 22 24 24 25 25 25 24 20 17 18 15 13 12 12 11 11 10 7 5 6 6 8 4 6 4 9 6 5 3 3 5 2
14 17 12 7 8 10 11 7 9 20 14 14 16 17 18 20 21 21 24 26 26 27 28 26 23 20 19 16 13 7 8 8 8 9 8 7 6 6 7 7 6 4 6 8 6 5 3 5 3
17 18 17 7 5 10 12 10 15 16 16 16 17 18 19 20 20 21 24 27 28 28 28 27 24 22 20 17 17 15 13 13 13 11 10 8 6 5 5 4 5 6 8 6 6 4 4 3 6
20 17 16 13 12 14 13 9 12 15 14 13 17 18 19 20 22 23 25 30 30 30 31 29 26 24 22 21 15 18 16 13 11 11 10 5 7 5 3 3 3 3 7 7 6 4 4 4 4
22 17 13 15 14 13 17 10 10 10 13 15 18 16 18 20 21 22 30 31 31 31 32 32 29 26 24 23 19 17 17 11 14 11 11 10 9 8 6 4 3 2 3 5 4 4 6 6 5
27 20 12 12 13 15 17 13 13 11 4 3 17 17 17 17 20 21 24 28 32 33 33 33 31 29 27 25 24 20 18 15 11 13 12 10 9 7 9 6 4 4 4 4 4 3 4 3 2
25 23 16 20 14 16 19 16 14 7 9 8 6 11 19 21 19 22 25 31 34 35 34 33 33 30 29 28 25 24 21 19 15 16 13 12 9 8 10 7 6 3 4 4 3 3 3 3 1
27 23 23 22 22 15 15 21 19 7 9 9 6 8 7 4 13 22 25 33 35 36 36 35 31 31 30 29 26 24 24 23 22 18 18 13 10 7 8 8 6 5 6 4 4 2 1 2 2
27 19 21 17 23 22 18 12 9 15 17 16 11 5 5 6 10 17 21 31 35 36 36 35 34 32 32 30 28 27 25 25 21 19 18 17 14 11 10 10 8 7 8 6 5 4 5 4 3
21 25 20 20 21 19 17 14 13 8 5 2 11 8 9 5 4 7 17 27 33 34 35 36 35 33 32 31 30 27 27 26 25 22 21 20 17 16 14 12 11 10 10 9 8 8 6 7 7
25 28 27 13 22 17 18 14 11 15 13 12 3 4 8 10 8 4 13 23 30 33 34 36 35 34 33 31 29 29 27 26 26 26 23 22 21 19 17 16 14 14 13 13 12 12 10 11 12
Wind_Direction
157 166 181 243 229 222 121 116 120 123 119 104 83 66 74 36 38 75 144 123 134 123 134 128 121 124 115 106 105 98 94 96 91 89 90 89 90 90 89 90 95 93 90 87 86 85 87 89 91
165 180 208 248 231 129 117 126 126 112 117 105 109 117 94 64 96 124 122 134 130 127 131 130 123 120 112 107 102 98 96 94 93 93 95 93 90 91 89 89 87 90 87 87 87 84 81 82 85
204 228 262 227 236 134 109 129 117 120 128 120 99 74 48 106 119 106 127 139 128 123 131 125 132 120 108 114 106 101 99 95 99 104 93 91 89 88 87 88 88 86 82 79 80 82 81 76 86
179 201 242 239 133 105 131 142 131 131 82 85 113 94 86 116 108 132 139 138 130 141 119 128 131 120 115 111 108 107 98 106 96 93 89 88 86 85 86 84 82 79 75 57 57 62 75 83 88
231 255 266 232 108 118 120 124 147 122 117 89 88 105 106 94 113 135 139 142 136 127 123 128 129 120 109 112 108 113 101 102 98 97 89 82 78 80 79 75 72 71 69 63 61 75 87 114 113
286 100 279 104 105 106 117 138 120 113 97 130 96 122 113 141 136 139 140 147 141 123 130 132 131 131 131 126 113 117 111 106 103 93 85 83 79 81 74 64 61 68 76 87 90 25 48 109 125
246 252 100 120 129 138 123 118 168 115 177 116 135 112 132 147 144 139 140 139 129 135 135 134 133 128 124 125 128 125 126 115 105 100 98 93 97 78 74 72 78 83 91 107 87 71 90 123 116
266 298 128 155 130 137 138 121 90 144 157 126 135 145 156 146 151 142 145 135 134 141 143 139 135 137 138 130 136 136 136 120 112 121 112 117 105 75 77 82 82 94 100 110 125 118 127 117 121
69 31 284 90 154 128 149 139 101 173 152 148 71 135 146 148 151 148 145 145 143 144 148 140 144 146 140 141 143 131 113 106 104 92 110 102 133 105 101 102 100 101 113 121 121 120 125 108 112
61 157 202 317 129 155 145 178 149 137 132 128 129 117 140 154 159 153 159 146 157 157 156 152 151 142 155 142 151 163 132 91 111 104 157 98 85 100 98 104 96 107 117 112 114 126 139 127 126
173 117 145 347 355 179 136 200 171 138 178 161 142 141 152 158 166 162 167 156 157 160 159 151 147 170 143 122 154 123 104 131 109 104 76 100 122 171 159 139 146 147 159 148 140 124 171 195 120
84 85 172 172 243 163 165 184 135 79 81 160 145 155 158 166 168 166 163 158 155 160 157 155 145 170 136 145 142 148 139 129 131 101 146 126 106 99 64 78 115 154 74 167 91 106 113 108 80
100 182 320 140 174 161 190 153 142 137 130 120 145 159 163 170 167 164 161 163 158 162 157 147 148 150 139 156 114 111 144 110 114 107 39 78 89 95 71 55 74 43 14 114 88 96 126 116 125
137 82 167 141 140 164 156 111 176 125 130 133 152 164 168 167 168 164 164 167 160 164 162 152 154 149 154 117 148 146 94 136 115 104 91 63 93 60 99 65 69 44 101 49 66 51 46 122 184
268 173 171 168 176 184 193 141 134 139 148 146 159 172 170 169 167 165 168 167 170 167 166 158 156 154 156 146 159 156 168 122 122 105 101 89 83 46 163 70 53 58 80 116 110 155 125 109 115
242 157 281 155 175 167 75 325 106 147 159 159 162 170 170 173 171 170 167 169 170 169 168 169 168 159 161 157 162 159 142 139 133 127 116 126 103 346 328 75 60 51 64 79 71 61 107 129 90
224 133 251 336 266 160 108 270 252 164 160 163 168 168 176 177 175 174 171 173 170 170 170 177 165 161 165 159 163 146 158 154 125 136 115 99 80 21 39 60 75 68 72 66 72 87 114 131 126
225 156 145 182 279 201 150 187 193 175 167 168 173 173 179 181 181 178 177 175 171 171 173 179 175 164 167 166 163 154 176 151 152 136 106 121 100 28 350 93 60 68 83 72 67 60 84 111 42
306 277 157 218 345 272 249 80 160 171 179 169 174 175 183 185 181 178 185 179 176 177 177 181 185 167 173 170 183 166 168 157 155 126 113 119 113 98 349 114 136 109 82 82 91 108 78 101 104
244 268 192 174 167 284 221 212 152 168 196 173 180 178 184 185 182 181 188 185 182 182 184 183 186 180 182 183 199 180 169 166 156 133 139 129 119 122 87 63 83 29 112 96 79 11 107 94 31
226 246 249 261 164 231 280 239 220 165 184 203 187 180 186 188 185 185 187 189 189 184 188 186 189 186 193 190 200 196 159 142 149 143 157 147 140 113 96 76 69 57 52 78 78 68 9 98 80
230 228 259 282 219 256 192 255 182 172 180 193 190 188 186 188 191 185 188 192 192 188 187 186 191 190 194 195 192 190 183 182 182 172 136 146 151 137 113 96 70 32 71 65 74 63 64 353 88
231 244 223 245 249 263 214 262 172 185 188 193 202 194 191 189 191 189 191 192 195 189 188 188 188 192 196 198 208 189 217 193 170 169 144 155 156 165 135 105 94 55 70 72 74 61 67 57 39
235 237 250 251 243 244 247 245 233 188 193 194 184 193 197 193 195 196 192 192 199 194 189 189 184 193 197 195 207 202 211 225 180 176 171 178 175 176 170 147 116 100 105 80 71 77 60 66 81
236 221 218 223 225 239 238 223 251 78 105 107 167 183 193 201 196 194 192 194 197 199 195 189 184 191 195 197 200 203 213 223 199 180 196 188 181 186 166 174 186 173 129 113 107 92 85 73 76
224 227 225 221 225 229 224 245 224 170 169 191 228 191 186 195 203 198 197 194 196 199 198 195 186 190 198 200 202 201 209 206 210 200 200 201 201 179 157 183 184 178 164 153 158 149 114 137 136
220 216 240 247 255 256 223 203 231 163 239 218 153 231 235 300 222 196 195 193 197 198 198 199 191 192 200 204 201 202 205 214 206 209 218 205 210 177 178 193 198 196 192 190 196 205 134 156 202
241 212 219 239 249 254 246 235 205 191 216 220 194 210 332 332 291 196 195 192 195 198 199 199 200 195 201 203 203 203 203 209 218 216 201 214 200 215 183 201 210 211 205 209 219 230 214 213 243
216 238 226 227 231 246 245 239 217 182 151 160 126 200 340 3 325 237 192 192 192 198 199 199 201 196 202 203 201 202 203 204 211 216 213 213 210 202 209 208 211 215 214 217 223 240 244 238 246
235 218 231 227 232 240 253 250 227 201 176 213 105 112 48 338 345 230 199 192 190 199 197 199 200 200 198 202 201 198 202 205 207 215 214 214 214 211 212 214 218 221 225 226 229 236 247 243 249
Height
765 767 769 768 781 768 767 767 741 748 746 735 738 744 758 761 774 801 787 789 794 799 804 807 808 809 810 811 813 813 814 814 814 815 815 816 817 818 818 819 820 821 822 822 822 822 822 823 823
765 767 768 764 776 773 773 746 755 745 742 742 746 750 756 777 770 779 787 793 795 801 805 808 810 811 812 813 814 816 816 816 816 817 817 818 819 820 820 821 821 822 823 824 824 824 824 825 825
764 765 768 769 767 765 770 749 746 744 743 745 752 751 762 781 775 781 790 795 798 803 806 809 811 813 814 815 817 817 817 817 817 817 818 819 820 822 822 823 823 824 825 825 826 826 826 826 826
763 762 758 773 762 744 752 743 744 746 747 746 748 772 772 774 778 786 792 795 800 802 806 810 812 815 816 817 817 818 819 819 819 819 821 822 822 823 824 825 825 827 828 827 828 828 828 827 827
757 755 770 765 753 738 734 737 741 750 750 753 753 771 781 782 782 789 792 795 798 804 808 812 813 816 818 818 819 820 820 820 821 821 822 823 824 823 824 825 826 827 828 829 827 826 826 826 827
761 756 780 777 760 745 741 736 744 752 767 757 761 773 785 783 787 790 793 796 797 803 809 813 814 817 818 819 820 821 822 822 822 823 823 824 824 824 825 826 826 827 829 828 825 824 824 825 825
753 754 768 760 764 755 751 741 755 762 765 764 754 772 780 783 788 790 795 796 800 806 810 813 816 818 820 821 821 822 822 823 824 824 824 824 824 825 826 826 826 827 828 828 825 825 826 827 828
742 744 757 753 763 765 745 752 745 759 763 748 751 773 784 781 788 793 797 799 803 807 808 811 816 819 821 823 822 823 823 824 824 824 824 823 825 825 826 826 827 828 828 829 829 829 828 828 829
739 766 770 763 761 755 744 753 749 751 753 750 756 759 770 782 788 793 797 801 806 808 809 812 817 819 821 823 823 823 824 824 824 825 825 824 824 826 826 827 828 828 828 829 830 830 829 830 831
772 770 762 741 738 750 745 746 755 757 761 761 761 760 774 783 788 791 795 799 803 807 810 812 816 818 820 822 823 823 825 824 825 827 825 824 826 826 827 828 827 828 828 828 829 828 828 829 830
742 757 754 747 729 729 747 754 740 752 775 756 764 769 775 781 786 790 792 797 801 806 808 811 815 818 818 821 821 824 824 824 826 827 826 826 825 825 824 825 826 825 823 826 824 829 829 828 830
743 739 740 745 735 737 746 736 749 758 762 745 758 767 773 779 782 787 791 796 800 806 808 811 815 818 819 821 821 821 823 824 824 827 826 827 826 824 823 824 824 824 825 823 818 827 830 831 831
739 734 738 729 733 731 732 735 739 744 740 745 759 767 771 775 780 786 790 796 800 805 809 812 817 819 821 821 822 823 822 823 826 827 827 825 826 825 826 825 823 825 824 824 826 828 829 829 831
720 740 736 726 730 723 729 732 733 743 743 751 762 767 769 771 777 784 789 794 800 805 809 814 818 821 824 824 826 824 823 827 826 827 830 830 830 829 827 826 826 826 827 827 828 831 830 830 831
717 735 727 726 726 728 721 742 739 740 744 754 761 765 767 770 776 782 789 794 800 804 809 814 818 821 825 826 826 824 825 826 827 830 832 833 832 829 827 829 829 830 832 832 833 832 832 830 831
725 741 756 727 724 720 754 804 743 740 747 756 757 761 766 770 775 781 788 794 800 803 809 814 815 820 824 826 826 824 825 826 827 829 832 833 834 832 830 830 832 833 832 832 833 832 833 832 831
724 766 791 781 724 721 748 808 762 740 747 755 757 759 765 769 773 780 786 793 798 803 808 814 816 819 823 826 826 826 828 827 828 829 831 835 835 833 831 832 835 834 835 835 834 834 834 835 833
733 736 767 791 736 716 747 782 740 735 739 749 753 757 762 767 770 778 784 790 796 802 807 813 816 818 822 826 827 826 828 828 829 829 832 835 836 836 834 836 836 834 835 837 838 836 835 834 833
724 733 750 776 764 741 730 757 731 730 731 741 748 753 759 762 767 775 781 787 794 800 805 811 816 818 821 824 824 825 826 827 828 831 835 837 837 837 835 834 835 837 838 839 839 839 839 838 838
726 732 730 723 727 728 732 726 720 727 729 730 738 745 752 757 762 770 778 784 790 797 803 808 814 818 820 822 822 822 823 827 829 831 836 837 838 838 838 837 837 837 838 840 840 839 838 840 839
728 735 729 732 726 726 728 738 727 720 726 723 726 733 742 749 755 764 773 779 786 793 800 805 811 815 818 820 822 823 824 826 830 832 835 837 839 839 839 839 840 839 837 839 840 840 839 838 841
740 719 721 733 740 750 722 753 730 716 725 725 724 728 734 741 748 758 768 775 781 788 796 802 808 813 817 818 821 823 824 825 826 829 831 836 838 839 839 839 840 839 839 841 841 841 841 839 839
733 712 722 728 737 737 738 745 725 712 728 724 720 720 724 733 741 749 759 768 775 781 789 796 804 810 814 817 818 822 823 823 825 827 832 834 837 839 838 839 840 840 839 842 843 843 841 841 840
712 723 735 727 734 760 735 737 727 715 714 710 711 715 720 725 733 742 753 763 771 776 782 789 798 805 810 814 816 820 821 821 824 826 831 833 834 837 838 839 840 840 841 842 843 843 843 843 843
718 732 766 771 765 765 720 734 722 702 702 699 704 710 713 718 725 735 744 755 765 770 777 783 791 799 805 810 814 818 820 822 823 827 828 828 830 833 835 838 840 840 841 842 842 843 843 844 844
721 723 746 778 763 747 720 741 722 694 692 694 697 696 700 707 713 722 733 746 756 764 771 777 785 794 800 805 810 814 819 821 823 825 825 827 827 830 832 836 838 839 840 841 842 842 843 843 844
716 727 711 734 721 731 714 709 698 695 700 699 700 701 700 699 698 708 722 735 748 757 764 771 779 788 795 800 805 810 815 818 820 821 824 825 826 828 832 834 836 838 839 840 841 841 842 842 842
706 700 741 731 762 761 725 723 719 708 708 703 702 702 701 701 700 697 710 725 740 750 758 766 773 782 789 794 800 804 809 814 816 819 821 822 824 827 829 832 834 836 837 838 840 840 840 840 841
717 717 712 715 726 746 748 725 686 699 700 702 701 707 707 702 702 700 705 718 732 743 750 758 766 775 783 788 793 798 803 808 813 815 818 820 822 824 826 828 831 833 835 836 837 838 838 839 839
696 707 708 729 745 721 722 720 672 677 685 700 702 702 702 704 702 705 707 715 725 735 743 750 759 767 775 782 787 792 798 803 807 811 814 817 819 821 822 825 827 829 831 832 833 834 835 836 836